Regional Weather Roundup
Issued by NWS San Angelo, TX

Home | Current Version | Previous Version | Text Only | Print | Product List | Glossary On
Versions: 1 2 3 4 5 6 7 8 9 10 11 12 13 14 15 16 17 18 19 20 21 22 23 24 25 26 27 28 29 30 31 32 33 34 35 36 37 38 39 40 41 42 43 44 45 46 47 48 49 50
000
ASUS44 KSJT 260410
RWRSJT
WEST CENTRAL TEXAS REGIONAL WEATHER ROUNDUP
NATIONAL WEATHER SERVICE SAN ANGELO TX
1000 PM CST THU DEC 25 2014

NOTE: "FAIR" INDICATES FEW OR NO CLOUDS BELOW 12,000 FEET WITH NO
SIGNIFICANT WEATHER AND/OR OBSTRUCTIONS TO VISIBILITY.

TXZ049-054-064>066-071>073-076>078-098-099-113-114-127-128-139-140-
154-155-168>170-260500
...LOCATIONS ACROSS WEST CENTRAL TEXAS...

CITY           SKY/WX    TMP DP  RH WIND       PRES   REMARKS
SAN ANGELO     CLOUDY    54  28  36 S15G23    29.83S
ABILENE        CLOUDY    53  25  33 S23G32    29.82F
DYESS AFB      CLOUDY    53  28  38 S22G30    29.82R
JUNCTION       MOCLDY    50  30  46 SE6       29.90S
SWEETWATER     MOCLDY    52  24  34 S16       29.84S
BROWNWOOD      MOCLDY    50  28  43 S15       29.90S
COLEMAN        MOCLDY    50  32  50 S9        29.88S
SONORA         MOCLDY    54  32  43 S15G23    29.92S
OZONA          FAIR      52  30  43 S15G24    29.87F
BRADY          CLEAR     54  32  43 S8        29.89R
$$

TEXAS PANHANDLE/OKLAHOMA PANHANDLE

CITY           SKY/WX    TMP DP  RH WIND       PRES   REMARKS
AMARILLO       CLEAR     41  21  44 S14       29.71R WCI  33
BORGER         CLEAR     47  19  33 S8        29.68S
CANADIAN       CLEAR     48  24  38 SW6       29.70R
DALHART        CLEAR     34  16  47 S9        29.66S WCI  27
DUMAS          CLEAR     38  17  43 S14       29.66S WCI  30
GUYMON         NOT AVBL
HEREFORD       CLEAR     42  24  49 S10G16    29.70S WCI  35
PAMPA          CLEAR     42  22  45 S13       29.69F WCI  35
PERRYTON       CLEAR     40  22  47 S10       29.68R WCI  33
$$

SOUTHERN PANHANDLE/SOUTH PLAINS/ROLLING PLAINS

CITY           SKY/WX    TMP DP  RH WIND       PRES   REMARKS
LUBBOCK        CLOUDY    49  24  37 S21       29.73S
SNYDER         MOCLDY    45  27  49 S9        29.81S WCI  40
CHILDRESS      CLOUDY    51  26  37 S13       29.75S
SEMINOLE       MOCLDY    46  26  45 S13       29.76S WCI  40
$$

PERMIAN BASIN

CITY           SKY/WX    TMP DP  RH WIND       PRES   REMARKS
MIDLAND        MOCLDY    50  28  42 S18       29.77S
ODESSA         MOCLDY    50  26  39 S16       29.77F
WINK           MOCLDY    51  21  30 SE17      29.73R
$$

FAR WEST/SOUTHWEST MOUNTAINS/TRANS PECOS

CITY           SKY/WX    TMP DP  RH WIND       PRES   REMARKS
ALPINE         CLOUDY    56  17  21 SW14      29.85F
DRYDEN           N/A     49  29  46 CALM      29.83S
EL PASO        PTCLDY    56  21  25 SW13      29.74R
FORT STOCKTON  CLOUDY    51  24  34 MISG      29.78S
GUADALUPE PASS NOT AVBL
MARFA          CLOUDY    39  16  38 NE3       29.86F
PECOS          CLOUDY    51  27  38 SE5       29.72S
$$

DALLAS/FORT WORTH METROPLEX

CITY           SKY/WX    TMP DP  RH WIND       PRES   REMARKS
DFW AIRPORT    MOCLDY    54  39  57 S17G26    29.93R
FTW MEACHAM    MOCLDY    53  38  56 S14       29.91S
DAL-EXECUTIVE  PTCLDY    53  39  59 S14G20    29.93R
GRAND PRAIRIE  PTCLDY    53  41  63 S10       29.94S
ADDISON        PTCLDY    55  41  58 S13G20    29.95S
MESQUITE       PTCLDY    51  39  62 S14       29.96S
LANCASTER      PTCLDY    51  39  63 S14       29.96F
$$

NORTH CENTRAL TEXAS

CITY           SKY/WX    TMP DP  RH WIND       PRES   REMARKS
SHRMAN/DENISON PTCLDY    52  39  61 SE17      29.92S
GAINESVILLE    PTCLDY    49  35  58 S8        29.92R
BRIDGEPORT     MOCLDY    50  33  52 S9        29.90S
DENTON         PTCLDY    54  37  52 S16       29.92S
WAXAHACHIE     PTCLDY    48  41  75 SE7       29.96S
GRANBURY       MOCLDY    50  34  54 E7        29.93R
$$

WESTERN NORTH TEXAS

CITY           SKY/WX    TMP DP  RH WIND       PRES   REMARKS
WICHITA FALLS  MOCLDY    51  28  41 S13       29.83R
VERNON         PTCLDY    49  24  36 SE9       29.79F
BRECKENRIDGE   MOCLDY    55  27  34 S14       29.86R
COMANCHE       MOCLDY    52  32  46 S14G22    29.90R
$$

CENTRAL AND SOUTH CENTRAL TEXAS

CITY           SKY/WX    TMP DP  RH WIND       PRES   REMARKS
AUSTIN/BERGSTM PTCLDY    50  44  80 S9        29.99S
WACO           PTCLDY    52  43  71 S17       29.96S
HILLSBORO      PTCLDY    53  42  66 SE17G23   29.95R
TEMPLE         MOCLDY    52  39  62 SE15      29.95R
KILLEEN-GRAY   CLEAR     44  36  73 S8        29.95S WCI  39
FORT HOOD      CLEAR     50  40  68 S12       29.95R
GEORGETOWN     CLEAR     52  39  62 SE10      29.95F
LAGO VISTA     FAIR      53  43  69 S10G18    29.97S
SAN MARCOS     CLEAR     52  43  71 S9        30.00S
NEW BRAUNFELS  CLEAR     50  44  80 S8        30.00R
RANDOLPH AFB   PTCLDY    52  46  77 S8        30.01R
SAN ANTONIO    PTCLDY    53  45  74 SE12      30.00R
STINSON        MOCLDY    51  44  77 CALM      30.00R
PLEASANTON     NOT AVBL
LA GRANGE      MOCLDY    56  50  80 S6        30.00R
GIDDINGS       MOCLDY    55  47  76 S8        30.05R
$$

EAST TEXAS

CITY           SKY/WX    TMP DP  RH WIND       PRES   REMARKS
PARIS          CLEAR     45  34  65 SE10      30.00R WCI  39
CLARKSVILLE    NOT AVBL
TYLER          PTCLDY    53  42  66 S13       30.00S
LONGVIEW       PTCLDY    50  42  74 SE10      30.03S
PALESTINE      PTCLDY    54  46  74 SE10G17   30.03S
NACOGDOCHES      N/A    N/A N/A N/A MISG        N/A
$$

TEXAS HILL COUNTRY AND EDWARDS PLATEAU

CITY           SKY/WX    TMP DP  RH WIND       PRES   REMARKS
LLANO          PTCLDY    48  36  61 SE6       29.98R
HORSESHOE BAY  FAIR      53  41  63 S10G18    29.95S
KERRVILLE      CLEAR     51  44  76 S10       29.97R
FREDERICKSBRG  CLEAR     50  40  68 S10G16    29.96R
ROCKSPRINGS    PTCLDY    52  36  54 SE22G29   29.93S
HONDO          CLEAR     52  41  66 SE13      29.99F
UVALDE         CLEAR     48  34  58 E7        29.97R
DEL RIO        PTCLDY    55  34  45 E13       29.90R
$$

SOUTHEAST TEXAS

CITY           SKY/WX    TMP DP  RH WIND       PRES   REMARKS
COLLEGE STN    CLOUDY    54  46  74 SE12      30.03S
CALDWELL       PTCLDY    54  46  76 SE10      30.05R
CROCKETT       CLEAR     54  48  82 SE6       30.07S
BRENHAM        MOCLDY    55  48  78 SE7       30.04R
HUNTSVILLE     PTCLDY    53  46  77 SE3       30.04S
CONROE         PTCLDY    49  45  86 CALM      30.06R
HOUSTON BUSH   CLOUDY    52  47  83 SE3       30.05S
HOUSTON HOBBY  CLOUDY    54  49  83 SE5       30.06R
PERLAND        CLOUDY    57  50  77 SE7       30.07S
WHARTON        MOCLDY    55  51  87 SE8       30.04S
$$

THE UPPER TEXAS COAST

CITY           SKY/WX    TMP DP  RH WIND       PRES   REMARKS
ORANGE         MOCLDY    53  50  90 E6        30.11S
PORT ARTHUR    MOCLDY    52  49  89 E7        30.08F
GALVESTON      CLOUDY    62  53  72 SE15      30.07F
ANGLETON       CLOUDY    59  50  72 S10       30.05S
BAY CITY         N/A     59  55  85 SE7       30.04F
$$

TEXAS COASTAL BEND, RIO GRANDE PLAINS DEEP SOUTH TEXAS

CITY           SKY/WX    TMP DP  RH WIND       PRES   REMARKS
VICTORIA       MOCLDY    57  51  80 SE9       30.02S
BEEVILLE       MOCLDY    58  52  78 S13       29.99S
ROCKPORT       CLOUDY    64  54  69 SE9       30.01F
PORT ARANSAS   CLOUDY    64  56  74 S14G21    30.01S
PORT LAVACA    MOCLDY    57  53  85 SE8       30.02F
CORPUS CHRISTI CLOUDY    62  53  72 SE16      30.00F
KINGSVILLE NAS CLOUDY    63  55  75 SE12      30.00S
COTULLA        CLEAR     54  42  64 SE6       29.97R
LAREDO         CLEAR     57  48  72 SE15      29.95F
BROWNSVILLE    CLOUDY    67  57  70 SE14      30.00F
PORT ISABEL    CLOUDY    66  56  70 SE17      30.00S
HEBBRONVILLE   PTCLDY    56  49  77 SE10G16   29.98R
MCALLEN        CLOUDY    61  55  81 SE9       30.00R
WESLACO        CLOUDY    60  53  75 S5        29.99S
FALFURRIAS     CLOUDY    62  51  67 SE12      29.98F
EDINBURG       CLOUDY    60  53  77 SE5       29.99F
$$


USA.gov is the U.S. government's official web portal to all federal, state and local government web resources and services.